Tracking 31027 objects as of 19-Jul-2025
HD Live streaming from Space Station
objects crossing your sky now

FENGYUN 1C DEB

Track FENGYUN 1C DEB now!
10-day predictions


NORAD ID: 33730
Int'l Code: 1999-025DHT
Perigee: 667.8 km
Apogee: 730.2 km
Inclination: 99.1 °
Period: 98.6 minutes
Semi major axis: 7069 km
RCS: 0.0099 m2 (small)
Launch date: May 10, 1999
Source: People's Republic of China (PRC)
Launch site: Taiyaun Space Center, China (TSC)

Note: This is SATELLITE DEBRIS
Your satellite tracking list
FENGYUN 1C DEB
Track 1 satellite(s)




NASA's NSSDC Master Catalog

Two Line Element Set (TLE):
1 33730U 99025DHT 25193.37927087  .00005277  00000-0  10860-2 0  9992
2 33730  99.0689 236.4949 0044096 118.0100 242.5569 14.60414147934393
Source of the keplerian elements: AFSPC